Athens, GA

1:05 PM EDT on September 30, 2016 (GMT -0400)
Athens / Epps

Weather History for KAHN - October, 2014

Change the Weather History Date:

Friday, October 17, 2014

  Actual Average Record
Temperature  
Mean Temperature 63 °F 62 °F  
Max Temperature 79 °F 74 °F 88 °F (1920)
Min Temperature 46 °F 51 °F 34 °F (1954)
Degree Days  
Heating Degree Days 2 4  
Month to date heating degree days 37 46  
Since 1 July heating degree days 39 56  
Cooling Degree Days 0 2  
Month to date cooling degree days 78 48  
Year to date cooling degree days 1973 1863  
Growing Degree Days 12 (Base 50)    
Moisture  
Dew Point 50 °F    
Average Humidity 69    
Maximum Humidity 100    
Minimum Humidity 37    
Precipitation  
Precipitation 0.00 in 0.11 in 2.71 in (1932)
Month to date precipitation 3.41 2.11  
Year to date precipitation 37.72 37.34  
Snow  
Snow 0.00 in 0.00 in 0.00 in (2002)
Month to date snowfall 0.0 0.0  
Since 1 July snowfall 0.0 0.0  
Since 1 September snowfall 0.0 0.0  
Snow Depth 0.00 in    
Sea Level Pressure  
Sea Level Pressure 29.93 in    
Wind  
Wind Speed 3 mph (WSW)    
Max Wind Speed 10 mph    
Max Gust Speed 18 mph    
Visibility 10 miles    
Events      
T = Trace of Precipitation, MM = Missing Value Source: NWS Daily Summary

Daily Weather History Graph

Daily Weather History Graph

Search for Another Location

Airport or City:

Trip Planner

Search our weather history database for the weather conditions in past years. The results will help you decide how hot, cold, wet, or windy it might be!

Date:

Astronomy

Oct. 17, 2014 Rise Set
Actual Time 7:39 AM EDT 6:56 PM EDT
Civil Twilight 7:14 AM EDT 7:22 PM EDT
Nautical Twilight 6:45 AM EDT 7:51 PM EDT
Astronomical Twilight 6:16 AM EDT 8:19 PM EDT
Moon 1:58 AM EDT (10/17) 3:29 PM EDT (10/17)
Length of Visible Light 12h 07m
Length of Day
11h 16m
Waning Crescent, 33% of the Moon is Illuminated
Oct 17
Waning Crescent
Oct 23
New
Oct 30
First Quarter
Nov 6
Full
Nov 14
Last Quarter

Hourly Weather History & Observations

Time (EDT) Temp. Dew Point Humidity Pressure Visibility Wind Dir Wind Speed Gust Speed Precip Events Conditions
12:51 AM 50.0 °F 48.0 °F 93% 29.94 in 10.0 mi Calm Calm - N/A   Clear
1:20 AM - - N/A% - - West 4.6 mph - N/A   Clear
1:51 AM 50.0 °F 48.0 °F 93% 29.94 in 10.0 mi WNW 3.5 mph - N/A   Clear
2:51 AM 48.9 °F 46.9 °F 93% 29.94 in 10.0 mi Calm Calm - N/A   Clear
3:51 AM 48.9 °F 46.9 °F 93% 29.93 in 10.0 mi Calm Calm - N/A   Clear
4:51 AM 46.9 °F 46.0 °F 97% 29.94 in 10.0 mi Calm Calm - N/A   Clear
5:51 AM 46.9 °F 45.0 °F 93% 29.95 in 10.0 mi Calm Calm - N/A   Clear
6:51 AM 48.0 °F 46.0 °F 93% 29.96 in 10.0 mi WSW 3.5 mph - N/A   Clear
7:51 AM 48.0 °F 46.0 °F 93% 29.97 in 10.0 mi WSW 3.5 mph - N/A   Clear
8:51 AM 52.0 °F 48.9 °F 89% 29.98 in 10.0 mi Calm Calm - N/A   Clear
9:51 AM 59.0 °F 52.0 °F 78% 29.99 in 10.0 mi West 4.6 mph - N/A   Clear
10:51 AM 64.4 °F 53.6 °F 68% 29.99 in 10.0 mi Variable 3.5 mph - N/A   Clear
11:51 AM 69.1 °F 52.0 °F 54% 29.96 in 10.0 mi West 3.5 mph - N/A   Clear
12:51 PM 73.0 °F 48.9 °F 42% 29.96 in 10.0 mi West 8.1 mph - N/A   Clear
1:51 PM 75.9 °F 50.0 °F 40% 29.92 in 10.0 mi WSW 8.1 mph - N/A   Clear
2:51 PM 78.1 °F 50.0 °F 37% 29.91 in 10.0 mi Variable 4.6 mph - N/A   Clear
3:51 PM 78.1 °F 51.1 °F 39% 29.89 in 10.0 mi West 6.9 mph - N/A   Clear
4:51 PM 78.8 °F 51.8 °F 39% 29.89 in 10.0 mi West 5.8 mph - N/A   Clear
5:51 PM 75.0 °F 52.0 °F 44% 29.88 in 10.0 mi Variable 4.6 mph - N/A   Clear
6:51 PM 69.1 °F 54.0 °F 58% 29.88 in 10.0 mi Calm Calm - N/A   Clear
7:51 PM 66.0 °F 54.0 °F 65% 29.89 in 10.0 mi SW 3.5 mph - N/A   Clear
8:51 PM 64.9 °F 54.0 °F 68% 29.90 in 10.0 mi WSW 4.6 mph - N/A   Clear
9:51 PM 64.0 °F 55.0 °F 73% 29.90 in 10.0 mi WSW 3.5 mph - N/A   Clear
10:51 PM 63.0 °F 55.0 °F 75% 29.90 in 10.0 mi WSW 3.5 mph - N/A   Clear
11:51 PM 62.1 °F 55.0 °F 78% 29.89 in 10.0 mi WSW 3.5 mph - N/A   Clear